Location: Gorrie
(43.8742°N, 81.1087°W)
Time: 12:06:27
(UTC+00:00)

Cosmos 2333 Rocket - Visible Passes

Search period start: 15 March 2026 00:00
Search period end: 25 March 2026 00:00
Orbit: 841 x 862 km, 70.8° (Epoch: 14 March)

Date Brightness Start Highest point End Pass type
(mag) Time Alt. Az. Time Alt. Az. Time Alt. Az.
15 Mar 5.0 06:40:53 13° NNE 06:40:53 13° NNE 06:41:26 10° NNE visible
15 Mar 4.7 08:22:53 10° NNW 08:22:53 10° NNW 08:23:16 10° NNW visible
16 Mar 5.0 06:28:44 12° NNE 06:28:44 12° NNE 06:29:11 10° NNE visible
16 Mar 4.7 08:10:44 10° NNW 08:10:44 10° NNW 08:11:00 10° NNW visible
17 Mar 5.0 06:16:34 12° NNE 06:16:34 12° NNE 06:16:56 10° NNE visible
17 Mar 4.8 07:58:33 10° NNW 07:58:33 10° NNW 07:58:45 10° NNW visible
18 Mar 5.0 06:04:23 12° NNE 06:04:23 12° NNE 06:04:41 10° NNE visible
18 Mar 4.8 07:46:22 10° NNW 07:46:22 10° NNW 07:46:30 10° NNW visible
19 Mar 5.1 05:52:10 11° NNE 05:52:10 11° NNE 05:52:26 10° NNE visible
19 Mar 4.9 07:34:09 10° NNW 07:34:09 10° NNW 07:34:14 10° NNW visible
20 Mar 5.0 05:39:55 11° NNE 05:39:55 11° NNE 05:40:11 10° NNE visible
20 Mar 4.9 07:21:54 10° NNW 07:21:54 10° NNW 07:21:59 10° NNW visible
21 Mar 5.0 05:27:39 11° NNE 05:27:39 11° NNE 05:27:56 10° NNE visible
21 Mar 4.9 07:09:38 10° NNW 07:09:38 10° NNW 07:09:44 10° NNW visible
22 Mar 5.0 05:15:22 12° NNE 05:15:22 12° NNE 05:15:42 10° NNE visible
22 Mar 4.9 06:57:20 10° NNW 06:57:20 10° NNW 06:57:29 10° NNW visible
23 Mar 4.9 05:03:01 12° NNE 05:03:01 12° NNE 05:03:26 10° NNE visible
23 Mar 5.0 06:45:00 10° NNW 06:45:00 10° NNW 06:45:13 10° NNW visible
24 Mar 4.9 04:50:39 13° NNE 04:50:39 13° NNE 04:51:12 10° NNE visible
24 Mar 5.0 06:32:37 10° NNW 06:32:37 10° NNW 06:32:58 10° NNW visible
